Akron, CO

9:03 PM MDT on September 24, 2017 (GMT -0600)
Akron-Washington County

Weather History for KAKO - October, 2012

Change the Weather History Date:

Sunday, October 7, 2012

  Actual Average Record
Temperature  
Mean Temperature 38 °F 53 °F  
Max Temperature 52 °F 67 °F 88 °F (1942)
Min Temperature 23 °F 40 °F 22 °F (1970)
Degree Days  
Heating Degree Days 27    
Month to date heating degree days 134  
Cooling Degree Days 0    
Month to date cooling degree days 0  
Moisture  
Dew Point 23 °F    
Average Humidity 60    
Maximum Humidity 92    
Minimum Humidity 28    
Precipitation  
Precipitation 0.00 in 0.05 in 1.01 in (1993)
Month to date precipitation 0.23 0.30  
Year to date precipitation 7.33 14.95  
Sea Level Pressure  
Sea Level Pressure 30.19 in    
Wind  
Wind Speed 8 mph (WSW)    
Max Wind Speed 17 mph    
Max Gust Speed 21 mph    
Visibility 10 miles    
Events      
T = Trace of Precipitation, MM = Missing Value Source: NWS Daily Summary

Daily Weather History Graph

Daily Weather History Graph

Search for Another Location

Airport or City:

Trip Planner

Search our weather history database for the weather conditions in past years. The results will help you decide how hot, cold, wet, or windy it might be!

Date:

Astronomy

Oct. 07, 2012 Rise Set
Actual Time 6:55 AM MDT 6:24 PM MDT
Civil Twilight 6:28 AM MDT 6:51 PM MDT
Nautical Twilight 5:57 AM MDT 7:23 PM MDT
Astronomical Twilight 5:25 AM MDT 7:54 PM MDT
Moon 11:38 PM MDT (10/7) 1:34 PM MDT (10/7)
Length of Visible Light 12h 23m
Length of Day
11h 28m
Waning Gibbous, 55% of the Moon is Illuminated
Oct 7
Waning Gibbous
Oct 8
Last Quarter
Oct 15
New
Oct 21
First Quarter
Oct 29
Full

Hourly Weather History & Observations

Time (MDT) Temp. Windchill Dew Point Humidity Pressure Visibility Wind Dir Wind Speed Gust Speed Precip Events Conditions
12:53 AM 25.0 °F 18.1 °F 21.9 °F 88% 30.35 in 10.0 mi SSW 5.8 mph - N/A   Clear
1:53 AM 24.1 °F 17.0 °F 21.0 °F 88% 30.35 in 8.0 mi SSW 5.8 mph - N/A   Clear
2:53 AM 25.0 °F 15.5 °F 21.0 °F 85% 30.32 in - SSW 9.2 mph - N/A   Clear
3:53 AM 24.1 °F 15.2 °F 21.0 °F 88% 30.30 in 10.0 mi SSW 8.1 mph - N/A   Clear
4:53 AM 26.1 °F 16.8 °F 23.0 °F 88% 30.29 in 10.0 mi SW 9.2 mph - N/A   Clear
5:53 AM 26.1 °F 17.6 °F 23.0 °F 88% 30.29 in 10.0 mi SSW 8.1 mph - N/A   Clear
6:53 AM 25.0 °F 17.1 °F 21.9 °F 88% 30.29 in 10.0 mi SSW 6.9 mph - N/A   Clear
7:53 AM 27.0 °F - 24.1 °F 89% 30.29 in 10.0 mi Calm Calm - N/A   Clear
8:53 AM 30.9 °F 22.2 °F 28.0 °F 89% 30.27 in 10.0 mi WSW 10.4 mph - N/A   Clear
9:53 AM 34.0 °F 25.0 °F 30.0 °F 85% 30.26 in 10.0 mi WSW 12.7 mph - N/A   Clear
10:53 AM 39.0 °F 31.0 °F 30.0 °F 70% 30.24 in 10.0 mi West 13.8 mph - N/A   Clear
11:53 AM 43.0 °F 35.7 °F 27.0 °F 53% 30.21 in 10.0 mi NW 15.0 mph - N/A   Clear
12:53 PM 46.0 °F 39.9 °F 28.0 °F 50% 30.17 in 10.0 mi WNW 13.8 mph 19.6 mph N/A   Clear
1:53 PM 48.0 °F - 21.0 °F 34% 30.14 in 10.0 mi WNW 8.1 mph - N/A   Clear
2:53 PM 50.0 °F - 19.9 °F 31% 30.10 in 10.0 mi NW 8.1 mph - N/A   Clear
3:53 PM 51.1 °F - 19.0 °F 28% 30.09 in 10.0 mi North 10.4 mph - N/A   Clear
4:53 PM 51.1 °F - 19.0 °F 28% 30.07 in 10.0 mi NNW 5.8 mph - N/A   Clear
5:53 PM 48.9 °F - 21.9 °F 35% 30.07 in 10.0 mi NNW 3.5 mph - N/A   Clear
6:53 PM 44.1 °F - 25.0 °F 47% 30.09 in 10.0 mi Calm Calm - N/A   Clear
7:53 PM 41.0 °F 37.1 °F 24.1 °F 51% 30.11 in 10.0 mi SSW 5.8 mph - N/A   Clear
8:53 PM 37.9 °F 31.5 °F 23.0 °F 55% 30.11 in 10.0 mi SW 9.2 mph - N/A   Clear
9:53 PM 37.9 °F 31.5 °F 21.9 °F 53% 30.10 in 10.0 mi SW 9.2 mph - N/A   Clear
10:53 PM 37.9 °F 30.5 °F 21.0 °F 51% 30.07 in 10.0 mi SW 11.5 mph - N/A   Clear
11:53 PM 37.9 °F 30.5 °F 19.9 °F 48% 30.04 in 10.0 mi SW 11.5 mph - N/A   Clear